CW4591 Weather Reports


Display with metric or nautical units.
time (UTC)temp
F
wind
direction
speed
MPH
gust
MPH
rain 1hr
in
rain 24hr
in
rain mn
in
humidity
%
barometer
mb
20260510180037 46 48 1.0 5.0 0.00 0.00 0.00 69 994.4
20260510174534 46 84 2.0 5.0 0.00 0.00 0.00 69 994.3
20260510173031 45 67 0.0 7.0 0.00 0.00 0.00 70 994.4
20260510171531 45 62 3.0 5.0 0.00 0.00 0.00 69 994.3
20260510170030 45 49 2.0 5.0 0.00 0.00 0.00 69 994.4
20260510164534 45 84 1.0 6.0 0.00 0.00 0.00 71 994.3
20260510163023 42 103 1.0 7.0 0.00 0.00 0.00 77 994.3
20260510161520 41 123 0.0 3.0 0.00 0.00 0.00 81 994.3
20260510160015 39 29 0.0 0.0 0.00 0.00 0.00 85 994.3
20260510154511 36 29 0.0 2.0 0.00 0.00 0.00 90 994.3
20260510153015 34 28 0.0 2.0 0.00 0.00 0.00 93 994.3
20260510151508 32 29 0.0 2.0 0.00 0.00 0.00 93 994.2
20260510150008 31 29 0.0 0.0 0.00 0.00 0.00 92 994.2
20260510144514 30 29 0.0 0.0 0.00 0.00 0.00 92 994.3
20260510143006 29 29 0.0 0.0 0.00 0.00 0.00 91 994.3
20260510141505 29 29 0.0 0.0 0.00 0.00 0.00 91 994.2
20260510140004 28 29 0.0 0.0 0.00 0.00 0.00 91 994.1
20260510134502 28 28 0.0 0.0 0.00 0.00 0.00 90 994.0
20260510133102 28 28 0.0 0.0 0.00 0.00 0.00 90 993.8
20260510131559 29 28 0.0 2.0 0.00 0.00 0.00 90 993.8
20260510130058 29 28 0.0 0.0 0.00 0.00 0.00 89 993.9
20260510124603 29 28 0.0 2.0 0.00 0.00 0.00 89 993.9
20260510123056 29 29 1.0 3.0 0.00 0.00 0.00 89 993.9
20260510121556 29 63 0.0 2.0 0.00 0.00 0.00 89 993.9
20260510120051 29 64 0.0 0.0 0.00 0.00 0.00 87 993.8
20260510114601 30 65 0.0 0.0 0.00 0.00 0.00 87 993.7
20260510113046 31 64 0.0 0.0 0.00 0.00 0.00 86 993.8
20260510111543 32 64 0.0 0.0 0.00 0.00 0.00 85 993.7
20260510110041 32 64 0.0 0.0 0.00 0.00 0.00 85 993.5
20260510104539 33 64 0.0 0.0 0.00 0.00 0.00 85 993.6
20260510103043 33 64 0.0 0.0 0.00 0.00 0.00 85 993.6
20260510101536 33 64 0.0 0.0 0.00 0.00 0.00 85 993.6
20260510100044 33 65 0.0 0.0 0.00 0.00 0.00 84 993.7
20260510094531 34 65 0.0 0.0 0.00 0.00 0.00 83 993.5
20260510093029 35 64 0.0 0.0 0.00 0.00 0.00 82 993.6
20260510091528 36 64 0.0 0.0 0.00 0.00 0.00 82 993.4
20260510090027 36 64 0.0 0.0 0.00 0.00 0.00 82 993.3
20260510084523 37 64 0.0 0.0 0.00 0.00 0.00 82 993.3
20260510083033 37 64 0.0 1.0 0.00 0.00 0.00 83 993.2
20260510081521 37 64 0.0 4.0 0.00 0.00 0.00 82 993.0
20260510080014 37 138 0.0 2.0 0.00 0.00 0.00 82 993.0
20260510074515 37 137 0.0 0.0 0.00 0.00 0.00 80 993.1
20260510073016 38 137 0.0 0.0 0.00 0.00 0.00 79 993.1
20260510071513 39 136 0.0 0.0 0.00 0.00 0.00 77 992.9
20260510070023 40 136 0.0 0.0 0.00 0.00 0.00 76 992.8
20260510064520 41 136 0.0 0.0 0.00 0.00 0.00 73 993.0
20260510063013 43 136 0.0 0.0 0.00 0.00 0.00 70 993.0
20260510061512 45 137 0.0 1.0 0.00 0.00 0.00 68 992.9
20260510060012 47 136 0.0 3.0 0.00 0.00 0.00 64 992.8
20260510054516 49 135 0.0 0.0 0.00 0.00 0.00 62 992.8
20260510053011 50 134 0.0 0.0 0.00 0.00 0.00 57 992.7
20260510051516 52 134 0.0 1.0 0.00 0.00 0.00 54 992.6
20260510050009 54 134 0.0 3.0 0.00 0.00 0.00 50 992.6
20260510044518 54 145 0.0 2.0 0.00 0.00 0.00 49 992.6
20260510043007 54 115 0.0 3.0 0.00 0.00 0.00 48 992.8
20260510041506 54 133 0.0 4.0 0.00 0.00 0.00 46 992.8
20260510040006 55 146 1.0 6.0 0.00 0.00 0.00 45 992.8
20260510034506 55 99 0.0 8.0 0.00 0.00 0.00 45 992.8
20260510033005 55 111 3.0 9.0 0.00 0.00 0.00 45 993.0
20260510031503 56 157 1.0 9.0 0.00 0.00 0.00 44 993.0
20260510030002 55 102 1.0 10.0 0.00 0.00 0.00 44 993.1
20260510024502 56 152 5.0 12.0 0.00 0.00 0.00 42 993.1
20260510023100 56 91 3.0 10.0 0.00 0.00 0.00 41 993.2
20260510021558 56 138 5.0 11.0 0.00 0.00 0.00 42 993.2
20260510020058 56 128 5.0 10.0 0.00 0.00 0.00 42 993.3
20260510014555 55 133 1.0 15.0 0.00 0.00 0.00 44 993.4
20260510013104 55 91 3.0 13.0 0.00 0.00 0.00 46 993.4
20260510011551 55 181 6.0 13.0 0.00 0.00 0.00 46 993.5
20260510004556 53 176 5.0 9.0 0.00 0.00 0.00 46 993.8
20260510003047 54 65 1.0 12.0 0.00 0.00 0.00 47 993.8
20260510001546 54 187 3.0 11.0 0.00 0.00 0.00 48 993.9
20260510000045 54 359 2.0 11.0 0.00 0.00 0.00 49 993.9
20260509234557 52 98 3.0 10.0 0.00 0.00 0.00 52 994.1
20260509233038 52 114 7.0 12.0 0.00 0.00 0.00 53 994.2
20260509231537 52 174 2.0 10.0 0.00 0.00 0.00 52 994.2
20260509230037 52 145 4.0 11.0 0.00 0.00 0.00 52 994.4
20260509224535 52 161 4.0 10.0 0.00 0.00 0.00 51 994.2
20260509223034 52 124 4.0 14.0 0.00 0.00 0.00 53 994.4
20260509221553 51 179 6.0 12.0 0.00 0.00 0.00 52 994.4
20260509220030 51 359 6.0 16.0 0.00 0.00 0.00 53 994.5
20260509214528 50 193 5.0 14.0 0.00 0.00 0.00 53 994.5
20260509213027 50 158 4.0 10.0 0.00 0.00 0.00 54 994.5
20260509211523 49 147 5.0 12.0 0.00 0.00 0.00 56 994.6
20260509210020 48 177 6.0 14.0 0.00 0.00 0.00 56 994.6
20260509204519 48 206 8.0 14.0 0.00 0.00 0.00 56 994.7
20260509203017 47 207 6.0 9.0 0.00 0.00 0.00 59 994.7
20260509201514 47 151 4.0 11.0 0.00 0.00 0.00 60 994.7
20260509200012 46 129 2.0 9.0 0.00 0.00 0.00 63 994.8
20260509194515 46 116 0.0 8.0 0.00 0.00 0.00 65 994.8
20260509193010 45 174 2.0 8.0 0.00 0.00 0.00 66 994.8
20260509191506 45 131 2.0 9.0 0.00 0.00 0.00 67 994.8
20260509190006 45 181 2.0 7.0 0.00 0.00 0.00 67 994.8
20260509184512 44 139 0.0 6.0 0.00 0.00 0.00 67 994.8
20260509183002 44 187 2.0 5.0 0.00 0.00 0.00 68 994.7
20260509181601 43 115 0.0 5.0 0.00 0.00 0.00 69 994.7